Regional Weather Roundup
Issued by NWS Charleston, SC

Current Version | Previous Version | Text Only | Print | Product List | Glossary Off
Versions: 1 2 3 4 5 6 7 8 9 10 11 12 13 14 15 16 17 18 19 20 21 22 23 24 25 26 27 28 29 30 31 32 33 34 35 36 37 38 39 40 41 42 43 44 45 46 47 48 49 50
000 ASUS42 KCHS 222125 RWRCHS REGIONAL WEATHER ROUNDUP NATIONAL WEATHER SERVICE CHARLESTON SC 500 PM EDT WED OCT 22 2014 NOTE: "FAIR" INDICATES FEW OR NO CLOUDS BELOW 12,000 FEET WITH NO SIGNIFICANT WEATHER AND/OR OBSTRUCTIONS TO VISIBILITY. NOT ALL STATIONS ARE QUALITY CONTROLLED BY THE NATIONAL WEATHER SERVICE. USE DATA WITH CAUTION...ESPECIALLY DEWPOINT OBSERVATIONS. SCZ027-030-031-034>040-042>050-222200- ...SOUTH CAROLINA... CITY SKY/WX TMP DP RH WIND PRES REMARKS N CHARLESTON SUNNY 69 40 34 N13 30.00S WATERFRONT PRK N/A 68 N/A N/A NW10G16 N/A FORT JOHNSON NOT AVBL JOHNS ISLAND CLEAR 68 43 40 N8 30.00S PINOPOLIS NOT AVBL MONCKS CORNER FAIR 68 48 49 NW6 30.00S SUMMERVILLE FAIR 68 45 42 NW7 30.01S BEAUFORT MCAS SUNNY 70 43 37 N12 30.00F BEAUFORT ARPT FAIR 70 45 40 NW7 30.00S HILTON HEAD IS NOT AVBL GEORGETOWN NOT AVBL WALTERBORO CLEAR 68 34 28 NW8 30.02R ORANGEBURG SUNNY 68 40 35 N9 30.02S BARNWELL FAIR 70 39 32 NE8 30.02F AIKEN FAIR 66 45 45 N9 30.06S MANNING FAIR 68 43 40 N7 30.00S KINGSTREE NOT AVBL COLUMBIA SUNNY 69 38 32 NW9 30.02S SUMTER SUNNY 67 44 42 N12 30.00S FLORENCE SUNNY 69 41 36 N10 29.99S MYRTLE BEACH MOSUNNY 68 41 37 NW13 29.97F N MYRTLE BEACH SUNNY 68 43 40 N9 29.96S $$ GAZ063-065-086>088-099>101-113>116-118-119-134-136>141-150-222200- ...GEORGIA... CITY SKY/WX TMP DP RH WIND PRES REMARKS SAVANNAH ARPT SUNNY 72 43 35 N8 30.01S HUNTER AAF SUNNY 70 43 36 NW10 29.99S FORT STEWART SUNNY 70 44 38 N8 30.00S STATESBORO NOT AVBL SYLVANIA CLEAR 75 46 35 N6 30.03S CLAXTON FAIR 70 43 37 NW5 30.02S THOMSON SUNNY 69 49 49 N6 30.08S AUGUSTA-BUSH SUNNY 70 38 31 N12 30.02S AUGUSTA-DANIEL SUNNY 69 39 33 N9 30.04S SWAINSBORO FAIR 73 41 31 MISG 30.03S VIDALIA SUNNY 72 43 35 NE5 30.02S ALMA SUNNY 72 43 35 VRB6 30.01F WAYCROSS SUNNY 74 47 38 N7 30.01S JESUP FAIR 73 45 35 N6 30.02S BRUNSWICK SUNNY 72 43 35 N6 30.02R SAINT SIMONS SUNNY 68 51 54 NE8 30.00S $$ SCZ027-028-034-036>038-045-046-048>050-GAZ119-141-222200- ...LAKE AND SUPPLEMENTAL COASTAL OBSERVATIONS... STATION/POSITION TIME TEMP WIND PRES WAVE SWELL AIR SEA DIR/SP/G HT/PER HT/PER/DIR (UTC) (F) (DEG/KT/KT) (MB) (FT/S) (FT/S/D) UPR LAKE MARION NOT AVBL WINYAH BAY 2100 66 320/ 8 1015.0S LAKE MURRAY 2000 67 350/ 4/ 10 1016.3S ACE BASIN NERRS 2100 70 350/ 3 1016.0S FORT PULASKI 2100 68 360/ 6/ 9 1016.2S SAPELO ISLAND NOT AVBL $$ ANZ835-935-AMZ111-154-330-350-352-354-374-450-454-472-222200- ...C-MAN AND BUOY OBSERVATIONS... STATION/POSITION TIME TEMP WIND PRES WAVE SWELL AIR SEA DIR/SP/G HT/PER HT/PER/DIR (UTC) (F) (DEG/KT/KT) (MB) (FT/S) (FT/S/D) FOLLY BEACH CMAN 2100 67 320/ 4/ 7 1016.2S BUOY 41004 2100 66 79 320/ 12/ 16 1014.9F 3/ 6 2/ 6 BUOY 41008 2100 66 76 360/ 8/ 12 1016.3F 3/ 6 3/ 50/ 6 5E ST. MARYS GA 2100 77 N/A 3/ 6 FRYING PAN BUOY 2100 65 75 330/ 16/ 19 1014.6F 3/ 4 2/110/10 BUOY 41025 2100 62 300/ 27/ 31 1010.0F 6/ 6 2/ 90/10 CAPE LOOKOUT NC 2100 62 310/ 21/ 27 1012.4R BUOY 41002 2017 72 79 310/ 19/ 25 1011.8R 6/ 6 2/ 80/10 BUOY 41010 2100 78 80 340/ 16/ 17 1012.7S 3/ 5 2/ 90/11 BUOY 41012 NOT AVBL ST AUGUSTINE FL 2100 69 10/ 17/ 21 1015.9R CAPERS NEARSHORE 2000 67 340/ 12/ 14 N/A FRIPP NEARSHORE NOT AVBL $$

USA.gov is the U.S. government's official web portal to all federal, state and local government web resources and services.